Location: Riverside
(39.1734°N, 77.8561°W)
Time: 10:41:09
(UTC+00:00)

Hubble Space Telescope - Pass Details

Date: 25 November 2019
Orbit: 536 x 540 km, 28.5° (Epoch: 11 December)

Event Time Altitude Azimuth Distance (km) Brightness Sun altitude
Rises 23:22:29 0° 249° (WSW) 2,669 6.0 -17.5°
Reaches altitude 10° 23:25:25 10° 227° (SW) 1,778 4.3 -18.0°
Maximum altitude 23:27:59 16° 189° (S) 1,430 3.2 -18.5°
Enters shadow 23:30:27 10° 151° (SSE) 1,752 3.2 -19.0°
